Terminal Aerodrome Forecast
Issued by NWS

Home | Current Version | Previous Version | Text Only | Print | Product List | Glossary On
Versions: 1 2 3 4 5 6 7 8 9 10 11 12 13 14 15 16 17 18 19
000
FTUS41 KGYX 300520
TAFRKD
TAF
KRKD 300520Z 3006/3106 22006KT P6SM BKN120
     FM301300 21008G18KT P6SM BKN100 OVC200
     FM301800 21014G24KT 5SM -SHRA BKN015 OVC050
     FM302200 22008KT P6SM BKN050
      AMD LTD TO CLD VIS AND WIND=

USA.gov is the U.S. government's official web portal to all federal, state and local government web resources and services.